Back to catalog

HJS-4A

AliveScienceLEO
NORAD 58691·PAYLOAD·🇨🇳 China

Launched Dec 30, 2023 from Jiuquan Satellite Launch Center

Loading…

Next Passes (next 24 hours)

TLE

FreshSource: Space-Track

Epoch: Sep 14, 2026, 15:00 UTC

1 58691U 23212A   26257.62543390 -.00000115  00000-0  23958-4 0  9992
2 58691  50.0023  16.0683 0000697  68.0154 292.0798 13.41461889133257

Track HJS-4A in real time with AllMySat

Download on the App Store